Time,TemperatureF,DewpointF,PressureIn,WindDirection,WindDirectionDegrees,WindSpeedMPH,WindSpeedGustMPH,Humidity,HourlyPrecipIn,Conditions,Clouds,dailyrainin,SoftwareType,DateUTC
2013-04-13 00:03:00,40.0,40.0,29.47,ENE,62,1.0,4.0,99,0.00,,,-99.99,,2013-04-13 04:03:00,
2013-04-13 00:12:00,40.0,40.0,29.47,ENE,62,1.0,4.0,99,0.00,,,-99.99,,2013-04-13 04:12:00,
2013-04-13 00:23:00,38.0,38.0,29.47,ENE,62,2.0,5.0,99,0.00,,,-99.99,,2013-04-13 04:23:00,
2013-04-13 00:33:00,38.0,38.0,29.45,ENE,74,2.0,8.0,99,0.00,,,-99.99,,2013-04-13 04:33:00,
2013-04-13 00:42:00,38.0,38.0,29.45,ENE,74,2.0,8.0,99,0.00,,,-99.99,,2013-04-13 04:42:00,
2013-04-13 00:53:00,38.0,38.0,29.45,ENE,74,2.0,8.0,99,0.00,,,-99.99,,2013-04-13 04:53:00,
2013-04-13 01:03:00,38.0,38.0,29.47,ENE,61,2.0,5.0,99,0.00,,,-99.99,,2013-04-13 05:03:00,
2013-04-13 01:12:00,38.0,38.0,29.47,ENE,61,2.0,5.0,99,0.00,,,-99.99,,2013-04-13 05:12:00,
2013-04-13 01:22:00,38.0,38.0,29.47,NE,37,2.0,6.0,99,0.00,,,-99.99,,2013-04-13 05:22:00,
2013-04-13 01:32:00,37.0,37.0,29.47,ENE,61,1.0,7.0,99,0.00,,,-99.99,,2013-04-13 05:32:00,
2013-04-13 01:43:00,37.0,37.0,29.47,ENE,61,1.0,7.0,99,0.00,,,-99.99,,2013-04-13 05:43:00,
2013-04-13 01:53:00,37.0,37.0,29.47,ESE,106,1.0,4.0,99,0.00,,,-99.99,,2013-04-13 05:53:00,
2013-04-13 02:02:00,37.0,37.0,29.47,ENE,66,1.0,5.0,99,0.00,,,-99.99,,2013-04-13 06:02:00,
2013-04-13 02:12:00,37.0,37.0,29.47,ENE,66,1.0,5.0,99,0.00,,,-99.99,,2013-04-13 06:12:00,
2013-04-13 02:24:00,37.0,37.0,29.47,ENE,74,2.0,6.0,99,0.00,,,-99.99,,2013-04-13 06:24:00,
2013-04-13 02:35:00,37.0,37.0,29.47,ESE,102,1.0,4.0,99,0.00,,,-99.99,,2013-04-13 06:35:00,
2013-04-13 02:47:00,37.0,37.0,29.47,ESE,102,1.0,4.0,99,0.00,,,-99.99,,2013-04-13 06:47:00,
2013-04-13 02:55:00,37.0,37.0,29.47,ENE,75,2.0,5.0,99,0.00,,,-99.99,,2013-04-13 06:55:00,
2013-04-13 03:05:00,37.0,37.0,29.47,East,92,1.0,4.0,99,0.00,,,-99.99,,2013-04-13 07:05:00,
2013-04-13 03:15:00,37.0,37.0,29.47,East,92,1.0,4.0,99,0.00,,,-99.99,,2013-04-13 07:15:00,
2013-04-13 03:24:00,37.0,37.0,29.49,ENE,72,1.0,5.0,99,0.00,,,-99.99,,2013-04-13 07:24:00,
2013-04-13 03:34:00,38.0,38.0,29.50,East,93,1.0,4.0,99,0.00,,,-99.99,,2013-04-13 07:34:00,
2013-04-13 03:45:00,38.0,38.0,29.50,East,93,1.0,4.0,99,0.00,,,-99.99,,2013-04-13 07:45:00,
2013-04-13 03:56:00,38.0,38.0,29.50,ENE,64,2.0,6.0,99,0.00,,,-99.99,,2013-04-13 07:56:00,
2013-04-13 04:06:00,38.0,38.0,29.50,ENE,72,2.0,5.0,99,0.00,,,-99.99,,2013-04-13 08:06:00,
2013-04-13 04:15:00,38.0,38.0,29.50,ENE,72,2.0,5.0,99,0.00,,,-99.99,,2013-04-13 08:15:00,
2013-04-13 04:25:00,38.0,38.0,29.50,ENE,68,2.0,5.0,99,0.00,,,-99.99,,2013-04-13 08:25:00,
2013-04-13 04:34:00,38.0,37.0,29.50,ENE,74,1.0,4.0,98,0.00,,,-99.99,,2013-04-13 08:34:00,
2013-04-13 04:45:00,38.0,37.0,29.50,ENE,74,1.0,4.0,98,0.00,,,-99.99,,2013-04-13 08:45:00,
2013-04-13 04:54:00,38.0,37.0,29.50,NNW,330,1.0,4.0,97,0.00,,,-99.99,,2013-04-13 08:54:00,
2013-04-13 05:05:00,38.0,37.0,29.50,ENE,70,1.0,4.0,97,0.00,,,-99.99,,2013-04-13 09:05:00,
2013-04-13 05:14:00,38.0,37.0,29.50,ENE,70,1.0,4.0,97,0.00,,,-99.99,,2013-04-13 09:14:00,
2013-04-13 05:24:00,38.0,37.0,29.52,WNW,286,1.0,3.0,97,0.00,,,-99.99,,2013-04-13 09:24:00,
2013-04-13 05:36:00,38.0,37.0,29.50,ENE,67,1.0,3.0,97,0.00,,,-99.99,,2013-04-13 09:36:00,
2013-04-13 05:50:00,38.0,37.0,29.50,ENE,67,1.0,3.0,97,0.00,,,-99.99,,2013-04-13 09:50:00,
2013-04-13 05:55:00,37.0,36.0,29.50,SSE,158,0.0,2.0,97,0.00,,,-99.99,,2013-04-13 09:55:00,
2013-04-13 06:05:00,37.0,36.0,29.50,WSW,251,0.0,1.0,98,0.00,,,-99.99,,2013-04-13 10:05:00,
2013-04-13 06:15:00,37.0,37.0,29.50,West,271,0.0,1.0,99,0.00,,,-99.99,,2013-04-13 10:15:00,
2013-04-13 06:24:00,37.0,37.0,29.50,West,271,0.0,1.0,99,0.00,,,-99.99,,2013-04-13 10:24:00,
2013-04-13 06:46:00,37.0,37.0,29.53,WSW,244,0.0,0.0,99,0.00,,,-99.99,,2013-04-13 10:46:00,
2013-04-13 06:55:00,37.0,37.0,29.53,West,259,0.0,1.0,99,0.00,,,-99.99,,2013-04-13 10:55:00,
2013-04-13 07:06:00,38.0,37.0,29.53,West,261,0.0,4.0,98,0.00,,,-99.99,,2013-04-13 11:06:00,
2013-04-13 07:13:00,38.0,37.0,29.53,West,261,0.0,4.0,98,0.00,,,-99.99,,2013-04-13 11:13:00,
2013-04-13 07:24:00,38.0,37.0,29.53,East,100,1.0,2.0,97,0.00,,,-99.99,,2013-04-13 11:24:00,
2013-04-13 07:34:00,38.0,37.0,29.53,East,100,1.0,2.0,97,0.00,,,-99.99,,2013-04-13 11:34:00,
2013-04-13 07:44:00,38.0,37.0,29.53,East,100,1.0,2.0,97,0.00,,,-99.99,,2013-04-13 11:44:00,
2013-04-13 07:53:00,40.0,38.0,29.53,ENE,70,1.0,3.0,91,0.00,,,-99.99,,2013-04-13 11:53:00,
2013-04-13 08:08:00,46.0,40.0,29.53,WNW,286,1.0,3.0,80,0.00,,,-99.99,,2013-04-13 12:08:00,
2013-04-13 08:25:00,51.0,40.0,29.55,ENE,72,1.0,3.0,66,0.00,,,-99.99,,2013-04-13 12:25:00,
2013-04-13 08:35:00,54.0,38.0,29.53,ENE,69,1.0,3.0,55,0.00,,,-99.99,,2013-04-13 12:35:00,
2013-04-13 08:47:00,54.0,38.0,29.53,ENE,69,1.0,3.0,55,0.00,,,-99.99,,2013-04-13 12:47:00,
2013-04-13 08:54:00,55.0,39.0,29.56,ENE,72,1.0,2.0,54,0.00,,,-99.99,,2013-04-13 12:54:00,
2013-04-13 09:08:00,58.0,39.0,29.56,SSW,209,1.0,3.0,49,0.00,,,-99.99,,2013-04-13 13:08:00,
2013-04-13 09:15:00,58.0,39.0,29.56,SSW,209,1.0,3.0,49,0.00,,,-99.99,,2013-04-13 13:15:00,
2013-04-13 09:29:00,55.0,38.0,29.56,ENE,63,0.0,3.0,53,0.00,,,-99.99,,2013-04-13 13:29:00,
2013-04-13 09:34:00,55.0,41.0,29.56,WSW,258,1.0,2.0,58,0.00,,,-99.99,,2013-04-13 13:34:00,
2013-04-13 09:47:00,55.0,41.0,29.56,WSW,258,1.0,2.0,58,0.00,,,-99.99,,2013-04-13 13:47:00,
2013-04-13 09:57:00,60.0,40.0,29.56,West,269,1.0,2.0,48,0.00,,,-99.99,,2013-04-13 13:57:00,
2013-04-13 10:14:00,59.0,40.0,29.56,WSW,252,1.0,3.0,49,0.00,,,-99.99,,2013-04-13 14:14:00,
2013-04-13 10:23:00,59.0,41.0,29.56,West,277,1.0,3.0,51,0.00,,,-99.99,,2013-04-13 14:23:00,
2013-04-13 10:46:00,64.0,40.0,29.56,ENE,67,1.0,4.0,41,0.00,,,-99.99,,2013-04-13 14:46:00,
2013-04-13 10:55:00,58.0,38.0,29.56,WNW,288,3.0,6.0,48,0.00,,,-99.99,,2013-04-13 14:55:00,
2013-04-13 11:05:00,55.0,36.0,29.56,NE,37,2.0,4.0,49,0.00,,,-99.99,,2013-04-13 15:05:00,
2013-04-13 11:14:00,52.0,35.0,29.56,WNW,298,2.0,7.0,52,0.00,,,-99.99,,2013-04-13 15:14:00,
2013-04-13 11:29:00,52.0,35.0,29.56,WNW,298,2.0,7.0,52,0.00,,,-99.99,,2013-04-13 15:29:00,
2013-04-13 11:35:00,53.0,35.0,29.56,WNW,292,3.0,8.0,51,0.00,,,-99.99,,2013-04-13 15:35:00,
2013-04-13 11:44:00,53.0,35.0,29.56,WNW,292,3.0,8.0,51,0.00,,,-99.99,,2013-04-13 15:44:00,
2013-04-13 11:58:00,53.0,34.0,29.56,WNW,298,2.0,6.0,49,0.00,,,-99.99,,2013-04-13 15:58:00,
2013-04-13 12:07:00,51.0,34.0,29.56,WNW,287,2.0,5.0,51,0.00,,,-99.99,,2013-04-13 16:07:00,
2013-04-13 12:24:00,55.0,36.0,29.56,WNW,284,3.0,5.0,48,0.00,,,-99.99,,2013-04-13 16:24:00,
2013-04-13 12:36:00,69.0,39.0,29.56,WNW,287,2.0,4.0,33,0.00,,,-99.99,,2013-04-13 16:36:00,
2013-04-13 12:45:00,69.0,39.0,29.56,WNW,287,2.0,4.0,33,0.00,,,-99.99,,2013-04-13 16:45:00,
2013-04-13 12:56:00,62.0,36.0,29.56,WNW,289,2.0,5.0,38,0.00,,,-99.99,,2013-04-13 16:56:00,
2013-04-13 13:07:00,68.0,38.0,29.56,WNW,292,2.0,4.0,33,0.00,,,-99.99,,2013-04-13 17:07:00,
2013-04-13 13:20:00,68.0,38.0,29.56,WNW,292,2.0,4.0,33,0.00,,,-99.99,,2013-04-13 17:20:00,
2013-04-13 13:37:00,64.0,36.0,29.56,ENE,66,2.0,5.0,35,0.00,,,-99.99,,2013-04-13 17:37:00,
2013-04-13 13:44:00,64.0,36.0,29.56,ENE,66,2.0,5.0,35,0.00,,,-99.99,,2013-04-13 17:44:00,
2013-04-13 14:04:00,72.0,38.0,29.56,WNW,283,2.0,4.0,29,0.00,,,-99.99,,2013-04-13 18:04:00,
2013-04-13 14:15:00,72.0,38.0,29.56,WNW,287,3.0,5.0,29,0.00,,,-99.99,,2013-04-13 18:15:00,
2013-04-13 14:24:00,68.0,38.0,29.56,West,281,3.0,7.0,33,0.00,,,-99.99,,2013-04-13 18:24:00,
2013-04-13 14:33:00,66.0,35.0,29.56,West,265,2.0,5.0,32,0.00,,,-99.99,,2013-04-13 18:33:00,
2013-04-13 14:42:00,66.0,35.0,29.56,West,265,2.0,5.0,32,0.00,,,-99.99,,2013-04-13 18:42:00,
2013-04-13 14:52:00,63.0,36.0,29.55,West,273,3.0,6.0,37,0.00,,,-99.99,,2013-04-13 18:52:00,
2013-04-13 15:03:00,62.0,35.0,29.55,West,268,2.0,3.0,36,0.00,,,-99.99,,2013-04-13 19:03:00,
2013-04-13 15:12:00,62.0,35.0,29.55,West,268,2.0,3.0,36,0.00,,,-99.99,,2013-04-13 19:12:00,
2013-04-13 15:22:00,62.0,35.0,29.54,SSW,205,1.0,4.0,36,0.00,,,-99.99,,2013-04-13 19:22:00,
2013-04-13 15:32:00,59.0,34.0,29.53,West,267,2.0,5.0,39,0.00,,,-99.99,,2013-04-13 19:32:00,
2013-04-13 15:42:00,59.0,34.0,29.53,West,267,2.0,5.0,39,0.00,,,-99.99,,2013-04-13 19:42:00,
2013-04-13 15:53:00,60.0,34.0,29.54,WSW,253,2.0,5.0,38,0.00,,,-99.99,,2013-04-13 19:53:00,
2013-04-13 16:02:00,57.0,34.0,29.55,West,260,3.0,6.0,42,0.00,,,-99.99,,2013-04-13 20:02:00,
2013-04-13 16:12:00,57.0,34.0,29.55,West,260,3.0,6.0,42,0.00,,,-99.99,,2013-04-13 20:12:00,
2013-04-13 16:22:00,56.0,34.0,29.55,WSW,250,3.0,7.0,43,0.00,,,-99.99,,2013-04-13 20:22:00,
2013-04-13 16:32:00,58.0,35.0,29.53,West,259,3.0,6.0,42,0.00,,,-99.99,,2013-04-13 20:32:00,
2013-04-13 16:42:00,58.0,35.0,29.53,West,259,3.0,6.0,42,0.00,,,-99.99,,2013-04-13 20:42:00,
2013-04-13 16:52:00,59.0,36.0,29.53,SW,234,2.0,6.0,42,0.00,,,-99.99,,2013-04-13 20:52:00,
2013-04-13 17:02:00,56.0,37.0,29.54,WSW,242,3.0,6.0,49,0.00,,,-99.99,,2013-04-13 21:02:00,
2013-04-13 17:12:00,56.0,37.0,29.54,WSW,242,3.0,6.0,49,0.00,,,-99.99,,2013-04-13 21:12:00,
2013-04-13 17:22:00,55.0,37.0,29.55,SW,226,2.0,5.0,51,0.00,,,-99.99,,2013-04-13 21:22:00,
2013-04-13 17:33:00,55.0,37.0,29.56,SW,224,2.0,5.0,50,0.00,,,-99.99,,2013-04-13 21:33:00,
2013-04-13 17:43:00,55.0,37.0,29.56,SW,224,2.0,5.0,50,0.00,,,-99.99,,2013-04-13 21:43:00,
2013-04-13 17:53:00,55.0,38.0,29.56,WSW,237,2.0,5.0,52,0.00,,,-99.99,,2013-04-13 21:53:00,
2013-04-13 18:03:00,55.0,37.0,29.56,SW,217,3.0,6.0,50,0.00,,,-99.99,,2013-04-13 22:03:00,
2013-04-13 18:12:00,55.0,37.0,29.56,SW,217,3.0,6.0,50,0.00,,,-99.99,,2013-04-13 22:12:00,
2013-04-13 18:22:00,52.0,39.0,29.56,WSW,245,3.0,7.0,61,0.00,,,-99.99,,2013-04-13 22:22:00,
2013-04-13 18:33:00,54.0,39.0,29.56,SW,229,3.0,7.0,57,0.00,,,-99.99,,2013-04-13 22:33:00,
2013-04-13 18:42:00,54.0,39.0,29.56,SW,229,3.0,7.0,57,0.00,,,-99.99,,2013-04-13 22:42:00,
2013-04-13 18:53:00,55.0,40.0,29.56,SW,220,2.0,5.0,57,0.00,,,-99.99,,2013-04-13 22:53:00,
2013-04-13 19:02:00,50.0,39.0,29.56,WSW,251,3.0,7.0,65,0.00,,,-99.99,,2013-04-13 23:02:00,
2013-04-13 19:12:00,49.0,38.0,29.56,WSW,246,3.0,6.0,66,0.00,,,-99.99,,2013-04-13 23:12:00,
2013-04-13 19:22:00,49.0,38.0,29.56,WSW,246,3.0,6.0,66,0.00,,,-99.99,,2013-04-13 23:22:00,
2013-04-13 19:32:00,46.0,36.0,29.56,SW,232,2.0,5.0,68,0.00,,,-99.99,,2013-04-13 23:32:00,
2013-04-13 19:42:00,46.0,36.0,29.56,SW,232,2.0,5.0,68,0.00,,,-99.99,,2013-04-13 23:42:00,
2013-04-13 19:53:00,46.0,37.0,29.56,SW,225,1.0,3.0,70,0.00,,,-99.99,,2013-04-13 23:53:00,
2013-04-13 20:02:00,45.0,37.0,29.58,SW,229,1.0,3.0,72,0.00,,,-99.99,,2013-04-14 00:02:00,
2013-04-13 20:12:00,45.0,37.0,29.58,SW,229,1.0,3.0,72,0.00,,,-99.99,,2013-04-14 00:12:00,
2013-04-13 20:22:00,45.0,37.0,29.59,SW,236,1.0,3.0,74,0.00,,,-99.99,,2013-04-14 00:22:00,
2013-04-13 20:32:00,44.0,37.0,29.59,WSW,237,1.0,3.0,75,0.00,,,-99.99,,2013-04-14 00:32:00,
2013-04-13 20:42:00,44.0,37.0,29.59,WSW,237,1.0,3.0,75,0.00,,,-99.99,,2013-04-14 00:42:00,
2013-04-13 20:52:00,44.0,37.0,29.59,WSW,249,1.0,2.0,76,0.00,,,-99.99,,2013-04-14 00:52:00,
2013-04-13 21:02:00,44.0,37.0,29.59,SW,223,1.0,4.0,77,0.00,,,-99.99,,2013-04-14 01:02:00,
2013-04-13 21:12:00,44.0,37.0,29.59,SW,223,1.0,4.0,77,0.00,,,-99.99,,2013-04-14 01:12:00,
2013-04-13 21:22:00,43.0,37.0,29.59,WSW,249,1.0,3.0,80,0.00,,,-99.99,,2013-04-14 01:22:00,
2013-04-13 21:32:00,43.0,38.0,29.59,WSW,246,1.0,2.0,81,0.00,,,-99.99,,2013-04-14 01:32:00,
2013-04-13 21:42:00,43.0,38.0,29.59,WSW,246,1.0,2.0,81,0.00,,,-99.99,,2013-04-14 01:42:00,
2013-04-13 21:53:00,43.0,38.0,29.59,WSW,246,1.0,2.0,81,0.00,,,-99.99,,2013-04-14 01:53:00,
2013-04-13 22:02:00,43.0,38.0,29.59,WSW,246,1.0,2.0,81,0.00,,,-99.99,,2013-04-14 02:02:00,
2013-04-13 22:12:00,41.0,37.0,29.60,West,259,0.0,1.0,85,0.00,,,-99.99,,2013-04-14 02:12:00,
2013-04-13 22:22:00,41.0,37.0,29.60,West,259,0.0,1.0,85,0.00,,,-99.99,,2013-04-14 02:22:00,
2013-04-13 22:33:00,41.0,37.0,29.62,WSW,247,0.0,1.0,87,0.00,,,-99.99,,2013-04-14 02:33:00,
2013-04-13 22:43:00,41.0,37.0,29.62,WSW,247,0.0,1.0,87,0.00,,,-99.99,,2013-04-14 02:43:00,
2013-04-13 22:53:00,41.0,37.0,29.62,SSW,207,0.0,0.0,86,0.00,,,-99.99,,2013-04-14 02:53:00,
2013-04-13 23:02:00,41.0,37.0,29.62,SSW,207,0.0,0.0,86,0.00,,,-99.99,,2013-04-14 03:02:00,
2013-04-13 23:12:00,41.0,37.0,29.62,SSW,207,0.0,0.0,86,0.00,,,-99.99,,2013-04-14 03:12:00,
2013-04-13 23:22:00,41.0,37.0,29.62,SSW,207,0.0,0.0,86,0.00,,,-99.99,,2013-04-14 03:22:00,
2013-04-13 23:33:00,43.0,41.0,29.62,WSW,245,0.0,1.0,91,0.00,,,-99.99,,2013-04-14 03:33:00,
2013-04-13 23:43:00,43.0,41.0,29.62,WSW,245,0.0,1.0,91,0.00,,,-99.99,,2013-04-14 03:43:00,
2013-04-13 23:53:00,43.0,41.0,29.62,WSW,240,0.0,1.0,91,0.00,,,-99.99,,2013-04-14 03:53:00,